Wind_Speed
11 11 10 10 10 10 11 10 9 10 12 13 13 13 12 13 14 13 13 14 14 15 14 14 15 14 15 15 15 15 16 16 17 16 15 15 15 15 16 17 17 18 18 18
11 11 9 10 10 11 10 10 10 11 11 13 13 13 11 12 13 13 13 14 14 15 15 14 14 15 15 15 15 14 15 16 16 16 16 16 16 16 17 18 19 19 19 18
12 10 10 11 11 12 13 11 11 12 11 11 12 12 11 12 12 13 13 14 15 15 13 13 14 14 14 14 15 15 15 16 16 16 17 17 16 17 18 19 19 19 19 19
13 12 12 13 14 13 13 12 12 11 11 11 11 12 13 12 14 14 15 15 14 14 14 14 14 14 14 15 15 15 16 17 17 17 17 17 18 18 19 20 20 20 20 19
13 13 14 15 14 14 13 12 12 12 12 12 12 13 13 13 15 15 15 15 14 14 14 15 15 15 15 15 15 16 16 17 17 17 18 18 19 19 19 19 19 19 19 19
15 15 15 15 14 13 12 12 12 12 12 13 12 13 15 15 16 15 15 14 14 15 14 15 15 15 15 16 16 16 17 18 18 18 19 19 19 19 20 19 18 19 19 19
15 15 15 15 13 13 13 12 11 12 12 12 11 14 16 16 15 15 16 16 15 15 15 14 15 15 15 16 17 17 17 18 18 18 18 18 19 20 19 18 18 19 19 19
16 16 16 16 16 15 14 13 13 13 12 11 12 14 15 17 16 16 16 16 16 15 15 15 16 17 16 16 16 17 18 18 18 18 18 18 19 20 19 18 18 19 19 20
16 17 17 17 16 15 14 14 14 13 13 13 15 16 17 17 17 17 17 17 16 16 16 16 17 17 17 17 17 17 18 18 18 18 18 18 19 19 19 19 19 20 20 20
17 17 16 16 16 15 15 15 15 14 14 14 15 15 16 17 17 16 17 17 16 16 17 17 17 17 17 17 17 17 17 18 18 18 18 19 19 20 20 20 20 20 20 20
18 19 17 17 18 16 16 16 17 16 15 15 14 17 17 17 16 18 18 17 16 16 17 18 17 17 17 17 17 18 18 18 18 19 19 19 19 19 19 19 20 20 20 20
20 20 19 17 17 18 17 17 18 19 17 16 16 18 18 17 17 18 18 17 17 17 17 17 17 17 17 17 17 17 17 18 19 19 19 19 19 19 19 19 20 20 20 19
21 21 20 18 18 19 19 18 18 18 19 19 17 19 18 19 18 19 18 18 17 17 17 17 17 18 17 17 17 17 18 18 19 19 19 19 19 19 19 20 20 20 19 18
23 23 22 21 19 18 18 18 19 20 21 21 20 19 19 20 20 19 19 20 19 18 17 17 18 18 18 17 17 17 18 18 19 19 19 19 19 19 19 19 19 19 18 18
24 23 22 20 18 19 18 18 20 21 21 20 20 20 19 21 20 20 20 20 19 18 18 17 17 17 17 17 18 18 18 19 19 19 19 19 19 19 19 19 19 19 18 18
25 25 23 20 18 20 20 20 20 20 20 20 20 20 20 21 21 20 19 19 19 19 18 17 17 17 17 17 18 18 19 20 20 20 20 20 20 20 19 19 19 19 19 19
26 25 24 22 21 20 22 23 22 20 21 21 21 21 22 22 21 21 20 19 19 19 18 17 17 17 18 18 19 19 20 20 20 20 20 20 20 20 20 20 20 20 20 20
26 26 25 23 23 23 22 22 22 22 22 22 22 22 23 23 22 21 21 21 20 20 19 19 18 19 18 19 20 20 20 20 19 19 19 19 20 20 20 20 20 20 20 19
26 26 26 24 23 23 22 21 22 22 22 23 23 23 24 24 23 22 21 21 20 19 20 20 20 20 20 20 20 21 20 19 19 20 20 20 20 21 20 20 20 20 20 19
26 27 27 26 25 24 23 23 23 23 24 22 23 23 23 23 24 23 22 21 20 19 20 21 21 20 21 21 21 21 20 20 20 21 20 21 21 21 21 20 19 20 20 19
25 26 27 27 27 26 25 25 24 24 25 24 23 23 23 23 24 22 22 21 20 20 20 21 21 21 22 22 22 22 21 21 21 21 22 22 22 22 21 20 20 19 19 19
26 26 27 27 27 27 27 27 28 27 26 25 24 24 24 24 24 22 21 20 20 21 21 21 21 21 21 22 22 21 21 21 21 21 21 22 22 22 21 21 20 20 20 19
25 26 26 26 27 28 27 28 27 26 26 26 25 25 24 24 24 23 23 22 22 22 22 22 22 22 21 21 21 21 21 21 21 21 21 22 22 21 21 21 20 20 20 19
24 27 28 28 27 26 26 27 28 27 26 25 25 24 24 23 23 23 23 23 23 23 23 22 22 22 21 21 21 21 21 21 21 21 21 21 21 21 21 21 21 20 20 19
26 27 29 29 28 28 28 28 28 28 28 26 26 25 24 24 24 23 23 23 23 23 23 22 22 22 22 22 21 21 21 20 21 21 21 21 21 21 20 20 20 19 19 19
29 28 28 29 30 31 30 29 28 28 28 27 27 27 26 26 25 24 24 24 23 23 23 22 22 21 21 21 21 21 21 21 21 21 21 21 20 20 19 19 19 17 17 17
Wind_Direction
225 229 230 233 236 242 252 263 268 270 264 266 274 280 286 289 290 292 294 293 297 300 303 300 296 303 304 306 305 306 308 311 314 313 308 308 310 312 313 313 312 311 310 306
228 233 232 233 240 241 244 257 269 270 270 270 276 284 287 292 292 294 298 297 298 302 302 303 302 306 305 305 305 306 309 312 315 314 308 308 309 311 313 312 310 310 309 306
231 226 232 238 244 245 249 253 261 266 269 274 281 283 286 291 293 296 299 299 299 299 303 304 307 309 307 308 309 308 308 313 313 312 308 308 308 310 312 312 310 310 310 308
229 231 233 241 245 246 248 248 254 261 272 272 276 278 281 286 292 297 301 300 300 306 305 309 308 308 307 307 309 309 309 312 311 309 308 308 308 309 311 312 310 309 310 310
227 236 237 241 245 243 242 248 254 259 264 264 268 274 273 278 284 287 295 300 301 305 309 309 306 306 307 307 309 310 310 310 309 311 310 310 310 312 313 312 310 310 309 310
224 232 238 242 245 241 242 249 257 261 261 265 265 264 268 270 282 289 294 298 300 304 306 307 307 306 305 306 309 310 311 309 307 309 309 309 311 312 312 312 311 309 309 311
229 233 238 242 241 240 242 247 255 265 265 270 269 267 273 276 281 290 292 294 297 300 301 304 305 307 306 305 307 309 311 310 307 307 308 309 310 312 311 310 311 311 311 311
230 235 240 243 246 244 246 248 249 258 260 267 270 265 272 279 281 284 288 291 294 296 299 302 304 307 308 306 307 309 312 311 309 307 308 309 310 311 311 310 310 311 311 310
233 237 241 242 245 246 246 247 248 256 259 260 260 266 269 274 282 285 286 288 291 292 296 299 301 305 306 306 307 308 309 311 309 309 309 310 312 313 313 312 311 310 308 309
234 239 242 242 247 249 246 246 245 243 252 260 263 270 276 277 285 286 284 284 286 289 291 293 298 301 303 303 302 304 307 310 308 307 308 308 310 310 311 311 311 309 308 308
232 234 240 242 247 246 244 246 253 255 255 259 265 271 274 274 282 285 285 287 287 290 291 292 295 298 299 301 301 303 304 307 308 307 306 306 309 310 311 311 311 310 310 309
233 233 235 238 245 249 247 249 252 256 261 262 265 270 275 280 282 284 284 287 288 290 292 293 294 296 297 300 301 302 304 307 307 306 305 304 306 309 309 311 311 309 309 307
230 231 235 233 237 245 248 248 253 258 263 265 266 272 275 278 279 282 286 287 289 290 291 294 295 296 298 299 299 301 305 309 311 308 305 304 304 306 307 309 308 307 307 307
234 235 235 237 236 244 251 251 253 257 260 265 267 269 271 277 280 280 284 287 291 294 295 297 298 298 298 298 298 302 307 310 312 311 309 307 306 308 308 309 308 307 306 305
236 238 240 242 240 244 248 253 256 258 261 264 268 268 268 273 279 281 283 286 288 291 294 295 298 299 300 299 299 303 306 308 310 311 310 310 310 310 310 310 310 309 307 305
236 238 241 244 244 249 250 249 252 258 260 262 264 266 266 271 276 281 283 285 285 287 290 292 294 298 300 300 301 302 303 305 307 309 310 309 310 310 309 309 310 309 307 306
237 240 242 244 246 247 252 253 252 254 257 258 259 261 265 268 271 276 282 284 284 285 287 288 292 296 300 301 302 302 303 305 306 307 309 310 310 310 309 307 308 308 308 309
238 240 243 245 248 249 248 255 257 256 255 255 258 261 264 269 273 275 278 281 282 282 284 287 291 294 295 297 300 301 303 304 305 307 309 310 311 312 311 309 309 308 307 308
239 240 242 242 247 252 252 256 256 257 256 256 257 259 262 267 270 273 275 278 280 280 281 285 289 291 293 296 298 299 302 303 304 305 306 307 310 312 311 311 310 309 307 306
239 239 242 243 244 247 252 254 254 255 257 258 257 259 262 263 265 269 275 278 279 281 283 286 287 290 294 297 298 300 301 301 302 303 305 307 308 310 310 309 309 308 306 305
242 240 242 244 246 247 250 254 257 257 257 258 259 259 261 262 265 268 273 276 278 281 283 287 288 290 293 295 297 298 299 300 302 303 306 308 309 310 310 309 308 308 308 307
241 242 243 246 247 249 250 252 253 255 258 259 258 259 261 262 265 269 273 277 280 282 283 285 288 291 291 293 296 297 298 301 303 304 305 307 308 310 312 311 310 310 310 309
237 241 245 245 247 249 251 253 256 258 258 258 257 259 261 262 263 267 272 277 279 281 282 283 286 289 291 292 293 294 297 299 301 303 306 309 309 310 310 311 311 310 309 307
238 239 241 244 246 249 249 253 255 257 257 256 257 258 258 259 262 266 271 275 277 279 281 280 281 285 288 289 290 291 294 296 298 301 305 309 311 311 310 311 312 310 310 309
238 239 240 244 247 251 251 252 253 254 255 256 257 258 257 257 261 265 269 273 275 275 278 280 281 283 285 288 288 289 291 293 295 298 302 306 308 309 310 311 312 313 314 314
241 242 242 244 248 250 254 256 255 254 254 254 255 256 258 260 262 264 267 271 273 275 277 278 280 282 284 286 288 290 291 292 293 295 298 302 306 309 310 311 313 314 315 316
Height
5842 5845 5846 5848 5850 5852 5852 5853 5853 5854 5853 5854 5853 5853 5852 5851 5850 5848 5848 5848 5847 5845 5844 5843 5842 5841 5840 5839 5839 5837 5836 5834 5833 5831 5829 5828 5826 5824 5823 5821 5820 5818 5816 5815
5841 5843 5846 5847 5848 5850 5850 5851 5852 5852 5852 5852 5851 5851 5850 5849 5849 5847 5847 5846 5845 5843 5842 5841 5839 5839 5838 5837 5836 5835 5833 5832 5830 5828 5826 5825 5823 5821 5820 5818 5816 5814 5813 5811
5839 5843 5844 5845 5846 5847 5849 5850 5851 5850 5850 5850 5850 5849 5849 5848 5847 5846 5844 5844 5843 5841 5840 5838 5837 5836 5835 5834 5833 5832 5831 5829 5827 5825 5823 5822 5820 5818 5816 5815 5813 5811 5809 5807
5837 5840 5841 5843 5844 5845 5846 5847 5848 5848 5848 5848 5849 5848 5846 5846 5845 5844 5843 5842 5841 5839 5838 5837 5835 5834 5833 5832 5830 5829 5828 5826 5824 5823 5821 5819 5817 5815 5813 5811 5809 5807 5805 5803
5835 5837 5838 5840 5841 5842 5843 5844 5845 5845 5845 5846 5846 5846 5845 5843 5842 5841 5841 5840 5839 5837 5836 5835 5832 5831 5830 5829 5828 5827 5825 5823 5821 5819 5817 5815 5813 5811 5809 5807 5805 5803 5801 5799
5832 5834 5836 5837 5838 5840 5841 5842 5842 5842 5842 5843 5843 5843 5842 5840 5839 5838 5838 5837 5836 5835 5834 5832 5830 5829 5827 5826 5824 5823 5822 5820 5818 5816 5813 5811 5809 5807 5805 5802 5800 5799 5797 5795
5828 5831 5832 5834 5835 5837 5838 5839 5840 5840 5840 5840 5840 5839 5838 5837 5837 5836 5836 5835 5834 5833 5831 5830 5828 5826 5825 5823 5822 5820 5818 5816 5814 5812 5810 5807 5805 5803 5801 5799 5797 5795 5793 5791
5826 5828 5829 5831 5832 5833 5834 5836 5837 5838 5838 5838 5838 5836 5835 5835 5835 5834 5833 5832 5831 5830 5829 5827 5825 5824 5822 5820 5819 5817 5815 5813 5810 5808 5806 5804 5801 5799 5797 5795 5793 5791 5789 5787
5822 5825 5827 5827 5828 5830 5831 5832 5834 5835 5835 5836 5835 5834 5831 5832 5832 5831 5830 5829 5828 5827 5825 5824 5822 5821 5819 5817 5815 5814 5812 5809 5807 5804 5802 5800 5798 5795 5793 5791 5789 5787 5785 5783
5819 5821 5823 5824 5825 5826 5828 5829 5830 5831 5831 5831 5831 5829 5828 5828 5827 5827 5826 5825 5824 5823 5821 5820 5819 5817 5815 5814 5812 5810 5808 5806 5803 5801 5798 5796 5794 5792 5789 5787 5785 5783 5780 5778
5814 5817 5819 5821 5821 5823 5825 5825 5825 5826 5827 5828 5828 5828 5825 5823 5823 5823 5822 5821 5820 5819 5818 5816 5815 5814 5812 5810 5808 5806 5804 5802 5799 5797 5795 5792 5790 5787 5785 5783 5781 5778 5776 5774
5809 5812 5814 5816 5818 5819 5820 5821 5822 5823 5823 5823 5823 5825 5821 5820 5820 5820 5819 5818 5817 5815 5814 5813 5811 5810 5808 5806 5804 5802 5801 5798 5796 5793 5790 5788 5786 5783 5781 5779 5776 5774 5772 5770
5804 5806 5809 5811 5815 5815 5815 5817 5818 5818 5819 5819 5820 5821 5818 5817 5817 5816 5815 5814 5813 5812 5811 5809 5807 5806 5804 5802 5801 5799 5797 5794 5791 5789 5786 5784 5781 5779 5777 5774 5772 5770 5768 5767
5799 5801 5804 5806 5808 5809 5810 5812 5813 5814 5814 5815 5815 5815 5815 5813 5813 5812 5812 5811 5810 5808 5807 5805 5804 5802 5800 5798 5797 5795 5793 5790 5788 5785 5782 5780 5778 5775 5773 5771 5768 5766 5764 5763
5793 5796 5798 5800 5802 5805 5806 5808 5809 5809 5810 5810 5810 5810 5810 5809 5809 5809 5808 5807 5806 5805 5803 5802 5800 5798 5796 5794 5793 5791 5789 5787 5784 5782 5779 5776 5774 5772 5769 5767 5764 5762 5760 5758
5787 5790 5793 5794 5797 5800 5801 5801 5803 5804 5805 5805 5805 5805 5805 5804 5804 5804 5804 5803 5802 5800 5799 5798 5796 5794 5793 5791 5789 5787 5785 5783 5780 5777 5775 5773 5770 5767 5765 5763 5760 5758 5756 5754
5781 5784 5787 5790 5792 5794 5795 5796 5797 5798 5799 5800 5800 5801 5800 5800 5800 5800 5799 5798 5797 5796 5795 5794 5792 5791 5789 5787 5785 5783 5781 5778 5776 5773 5771 5768 5766 5763 5761 5758 5756 5754 5751 5749
5774 5777 5780 5783 5786 5787 5790 5791 5791 5792 5793 5794 5795 5795 5795 5795 5795 5795 5794 5793 5793 5792 5790 5789 5788 5787 5785 5783 5781 5778 5776 5774 5771 5769 5767 5764 5762 5759 5756 5754 5751 5749 5747 5745
5768 5771 5774 5776 5779 5780 5783 5784 5785 5786 5787 5788 5788 5789 5789 5789 5789 5789 5789 5788 5788 5786 5786 5785 5783 5782 5781 5779 5776 5774 5772 5769 5767 5765 5763 5761 5758 5755 5752 5749 5747 5745 5742 5740
5762 5765 5768 5770 5772 5774 5777 5778 5778 5780 5780 5780 5781 5782 5783 5784 5784 5784 5783 5783 5782 5781 5781 5779 5778 5777 5775 5774 5771 5769 5767 5765 5763 5761 5758 5756 5753 5751 5748 5745 5743 5740 5738 5736
5755 5758 5760 5763 5765 5767 5770 5771 5772 5775 5774 5774 5775 5776 5777 5777 5778 5778 5778 5777 5777 5776 5775 5774 5773 5772 5770 5768 5766 5764 5762 5760 5758 5756 5753 5751 5748 5746 5743 5741 5738 5736 5734 5731
5749 5751 5754 5756 5758 5763 5763 5764 5766 5766 5767 5768 5769 5770 5771 5771 5771 5771 5772 5771 5771 5771 5770 5769 5768 5767 5765 5763 5761 5759 5757 5755 5753 5751 5749 5746 5744 5741 5738 5736 5734 5731 5729 5726
5743 5746 5747 5749 5752 5753 5755 5757 5757 5759 5760 5762 5763 5764 5765 5765 5766 5766 5766 5766 5765 5765 5764 5763 5762 5761 5760 5758 5756 5754 5753 5751 5749 5746 5744 5741 5738 5736 5734 5732 5729 5727 5724 5722
5737 5738 5740 5742 5743 5745 5747 5750 5751 5752 5754 5755 5756 5757 5758 5759 5759 5760 5760 5760 5759 5758 5758 5757 5756 5755 5753 5752 5750 5749 5747 5745 5744 5742 5739 5736 5734 5731 5729 5727 5724 5722 5720 5717
5728 5730 5732 5734 5736 5737 5740 5741 5743 5745 5747 5748 5749 5750 5751 5752 5753 5753 5753 5753 5752 5752 5751 5750 5749 5748 5747 5746 5744 5743 5742 5740 5738 5736 5734 5732 5730 5727 5725 5723 5720 5717 5715 5713
5720 5722 5724 5726 5728 5730 5732 5734 5735 5737 5739 5740 5742 5743 5744 5745 5746 5746 5746 5746 5746 5745 5744 5744 5743 5742 5741 5739 5738 5737 5735 5734 5733 5731 5729 5727 5725 5723 5721 5719 5716 5714 5711 5709